Regional Weather Roundup
Issued by NWS

Home | Current Version | Previous Version | Text Only | Print | Product List | Glossary On
Versions: 1 2 3 4 5 6 7 8 9 10 11 12 13 14 15 16 17 18 19 20 21 22 23 24 25 26 27 28 29 30 31 32 33 34 35 36 37 38 39 40 41 42 43 44 45 46 47 48 49 50
000
ASUS43 KTOP 180459
RWRKS

WEATHER ROUNDUP FOR KANSAS
NATIONAL WEATHER SERVICE GOODLAND KS
1200 AM CDT THU SEP 18 2014

NOTE:  "FAIR" INDICATES FEW OR NO CLOUDS BELOW 12,000 FEET WITH NO
SIGNIFICANT WEATHER AND/OR OBSTRUCTIONS TO VISIBILITY.

KSZ001>006-013>018-027>032-041>047-180600-
NORTHWEST KANSAS

CITY           SKY/WX    TMP DP  RH WIND       PRES   REMARKS
GOODLAND       PTCLDY    60  57  89 VRB5      29.98R
HILL CITY      CLEAR     68  65  90 E7        29.92R
RUSSELL        MOCLDY    69  66  90 E12       29.89S
$$

KSZ061>065-074>080-084>089-180600-
SOUTHWEST KANSAS

CITY           SKY/WX    TMP DP  RH WIND       PRES   REMARKS
DODGE CITY     MOCLDY    70  60  70 SW6       29.91S
ELKHART          N/A     68  54  61 SW8         N/A
GARDEN CITY    PTCLDY    67  60  78 SW7       29.91S
GREAT BEND     PTCLDY    72  66  83 E12       29.89S
LIBERAL        CLOUDY    72  59  64 SW13      29.95F
PRATT          MOCLDY    70  61  73 SW5       29.89S
$$

KSZ066>073-081>083-090>101-180600-
SOUTHEAST KANSAS

CITY           SKY/WX    TMP DP  RH WIND       PRES   REMARKS
CHANUTE        MOCLDY    71  68  90 E6        29.91S
COFFEYVILLE    CLOUDY    72  67  84 SE6       29.90R
HUTCHINSON     PTCLDY    71  67  87 E8        29.88S
NEWTON         MOCLDY    70  64  83 E10G16    29.91F
PARSONS        CLOUDY    70  65  84 CALM      29.91S
WICHITA INTL   CLOUDY    77  67  71 E6        29.87R
WICHITA JABRA  CLOUDY    73  69  87 E8        29.88R
WINFIELD       MOCLDY    77  68  73 S12       29.88R
$$

KSZ007>012-019>026-033>040-048>060-102>105-180600-
NORTHEAST KANSAS

CITY           SKY/WX    TMP DP  RH WIND       PRES   REMARKS
CONCORDIA      PTCLDY    65  65 100 E9        29.92F
EMPORIA        CLOUDY    68  67  96 E7        29.92S
LAWRENCE       FOG       60  59  96 E3        29.96R VSB 1/4
MANHATTAN      PTCLDY    68  65  90 E8        29.93S
OLATHE IND     FOG       64  64 100 E5        29.96S VSB 1/4
OLATHE EXE     FOG       64  64 100 SE6       29.95F VSB 1/4
SALINA         PTCLDY    71  66  84 E10       29.90F
TOPEKA BILLARD FOG       63  62  97 CALM      29.95S VSB 1/2
TOPEKA FORBES  CLOUDY    63  62  97 E5        29.94F FOG
$$



USA.gov is the U.S. government's official web portal to all federal, state and local government web resources and services.